sat.trackr.live / text

‹ back to catalog

ENSHI XIDA SHANQUAN

NORAD 64962 · 2025-160A

PAYLOAD ACTIVE UNKNOWN

§ Identity

Operator
Country
PRC
Launch date
2025-07-29
Launch site
JSC
Launch vehicle
Mass (kg)
RCS (m²)

External: N2YO · Heavens-Above · Gunter

§ Orbital elements

Epoch: 2026-09-21T22:18:57.635136Z

Period
92.98 min
Inclination
97.3554°
Eccentricity
0.0006250
Mean motion
15.48758422 rev/d
Perigee alt
416.1 km
Apogee alt
424.6 km
Semi-major
6,798.5 km
B*
7.0652e-4
RAAN
344.1356°
Arg perigee
204.5657°
Mean anomaly
155.5297°
Rev number
6,435

§ Raw data

ENSHI XIDA SHANQUAN1 64962U 25160A   26264.92983374  .00037970  00000+0  70652-3 0  99942 64962  97.3554 344.1356 0006250 204.5657 155.5297 15.48758422 64358

JSON: /api/v1/satellites/64962 · /tle

For live sub-satellite position, see the globe view (requires WebGL).

§ Visibility from observer

Set your observer location to see the next 7 days of passes ≥ 10°. The values pass through the URL so the page stays shareable.

No JS? Fill the form by hand. The geolocation button needs JavaScript.